St. Louis, MO

9:41 PM CDT on May 26, 2017 (GMT -0500)
Lambert-Saint Louis International

Weather History for KSTL - March, 2014

Change the Weather History Date:

Sunday, March 23, 2014

  Actual Average Record
Temperature  
Mean Temperature 36 °F 49 °F  
Max Temperature 43 °F 59 °F 87 °F (1910)
Min Temperature 28 °F 39 °F 7 °F (1974)
Degree Days  
Heating Degree Days 29 16  
Month to date heating degree days 522 468  
Since 1 July heating degree days 4559 4066  
Cooling Degree Days 0 0  
Month to date cooling degree days 0 0  
Year to date cooling degree days 0 0  
Moisture  
Dew Point 11 °F    
Average Humidity 37    
Maximum Humidity 50    
Minimum Humidity 24    
Precipitation  
Precipitation 0.00 in 0.11 in 1.35 in (1969)
Month to date precipitation 1.35 2.33  
Year to date precipitation 4.50 6.97  
Snow  
Snow 0.00 in 0.00 in 6.50 in (1974)
Month to date snowfall 1.5 2.0  
Since 1 July snowfall 28.7 17.0  
Snow Depth 0.00 in    
Sea Level Pressure  
Sea Level Pressure 30.43 in    
Wind  
Wind Speed 10 mph (North)    
Max Wind Speed 21 mph    
Max Gust Speed 26 mph    
Visibility 10 miles    
Events      
T = Trace of Precipitation, MM = Missing Value Source: NWS Daily Summary

Daily Weather History Graph

Daily Weather History Graph

Search for Another Location

Airport or City:

Trip Planner

Search our weather history database for the weather conditions in past years. The results will help you decide how hot, cold, wet, or windy it might be!

Date:

Astronomy

Mar. 23, 2014 Rise Set
Actual Time 7:00 AM CDT 7:16 PM CDT
Civil Twilight 6:33 AM CDT 7:42 PM CDT
Nautical Twilight 6:02 AM CDT 8:14 PM CDT
Astronomical Twilight 5:30 AM CDT 8:45 PM CDT
Moon 1:30 AM CDT (3/23) 11:44 AM CDT (3/23)
Length of Visible Light 13h 09m
Length of Day
12h 16m
Waning Gibbous, 54% of the Moon is Illuminated
Mar 23
Waning Gibbous
Mar 23
Last Quarter
Mar 30
New
Apr 7
First Quarter
Apr 15
Full

Hourly Weather History & Observations

Time (CDT) Temp. Windchill Dew Point Humidity Pressure Visibility Wind Dir Wind Speed Gust Speed Precip Events Conditions
12:51 AM 36.0 °F 26.3 °F 16.0 °F 44% 30.37 in 10.0 mi North 16.1 mph 23.0 mph N/A   Mostly Cloudy
1:51 AM 35.1 °F 26.9 °F 14.0 °F 42% 30.38 in 10.0 mi North 11.5 mph - N/A   Mostly Cloudy
2:51 AM 34.0 °F 24.6 °F 12.0 °F 40% 30.38 in 10.0 mi North 13.8 mph - N/A   Overcast
3:51 AM 32.0 °F 21.2 °F 14.0 °F 48% 30.39 in 10.0 mi North 16.1 mph 24.2 mph N/A   Mostly Cloudy
4:51 AM 30.9 °F 22.2 °F 14.0 °F 50% 30.41 in 10.0 mi North 10.4 mph 21.9 mph N/A   Mostly Cloudy
5:51 AM 30.0 °F 18.3 °F 12.9 °F 49% 30.44 in 10.0 mi North 17.3 mph - N/A   Mostly Cloudy
6:51 AM 28.9 °F 17.7 °F 12.9 °F 51% 30.46 in 10.0 mi North 15.0 mph 25.3 mph N/A   Mostly Cloudy
7:51 AM 28.0 °F 18.1 °F 12.9 °F 53% 30.47 in 10.0 mi North 11.5 mph - N/A   Scattered Clouds
8:51 AM 30.0 °F 21.7 °F 14.0 °F 51% 30.48 in 10.0 mi North 9.2 mph 19.6 mph N/A   Scattered Clouds
9:51 AM 30.9 °F 20.7 °F 14.0 °F 50% 30.50 in 10.0 mi North 13.8 mph - N/A   Partly Cloudy
10:51 AM 33.1 °F 23.4 °F 12.9 °F 43% 30.51 in 10.0 mi North 13.8 mph - N/A   Partly Cloudy
11:51 AM 36.0 °F 29.0 °F 10.9 °F 36% 30.49 in 10.0 mi North 9.2 mph - N/A   Clear
12:51 PM 37.0 °F 30.4 °F 10.9 °F 34% 30.47 in 10.0 mi NNE 9.2 mph - N/A   Clear
1:51 PM 42.1 °F 35.7 °F 10.0 °F 27% 30.45 in 10.0 mi NNW 11.5 mph 17.3 mph N/A   Clear
2:51 PM 41.0 °F 34.7 °F 10.0 °F 28% 30.43 in 10.0 mi WNW 10.4 mph 17.3 mph N/A   Clear
3:51 PM 42.1 °F 35.2 °F 10.0 °F 27% 30.41 in 10.0 mi NNW 12.7 mph 18.4 mph N/A   Clear
4:51 PM 43.0 °F 36.8 °F 8.1 °F 24% 30.40 in 10.0 mi NNW 11.5 mph - N/A   Clear
5:51 PM 42.1 °F 37.1 °F 9.0 °F 26% 30.39 in 10.0 mi NW 8.1 mph - N/A   Clear
6:51 PM 39.0 °F 32.8 °F 10.0 °F 30% 30.39 in 10.0 mi NW 9.2 mph - N/A   Clear
7:51 PM 37.0 °F 31.0 °F 7.0 °F 29% 30.40 in 10.0 mi North 8.1 mph - N/A   Clear
8:51 PM 36.0 °F 31.1 °F 7.0 °F 30% 30.41 in 10.0 mi NNE 5.8 mph - N/A   Clear
9:51 PM 35.1 °F 30.1 °F 8.1 °F 33% 30.41 in 10.0 mi NNE 5.8 mph - N/A   Clear
10:51 PM 30.9 °F 25.2 °F 9.0 °F 40% 30.41 in 10.0 mi East 5.8 mph - N/A   Clear
11:51 PM 32.0 °F 28.7 °F 10.0 °F 40% 30.41 in 10.0 mi ENE 3.5 mph - N/A   Clear